Location: Chuathbaluk
(61.5726°N, 159.2454°W)
Time: 02:50:20
(UTC+00:00)

Transit 4A - Pass Details

Date: 04 December 2020
Orbit: 864 x 980 km, 66.8° (Epoch: 26 January)

Event Time Altitude Azimuth Distance (km) Brightness Sun altitude
Rises 20:46:09 0° 264° (W) 3,679 10.8 3.6°
Reaches altitude 10° 20:48:47 10° 268° (W) 2,737 10.2 3.7°
Maximum altitude 20:55:07 58° 348° (NNW) 1,140 8.2 4.0°
Drops below altitude 10° 21:01:26 10° 67° (ENE) 2,726 10.4 4.3°
Sets 21:04:03 0° 72° (ENE) 3,663 11.0 4.4°
